KF5WOE-13 Weather Reports


Display with metric or nautical units.
time (UTC)temp
F
wind
direction
speed
MPH
gust
MPH
rain 1hr
in
rain 24hr
in
rain mn
in
humidity
%
barometer
mb
20260831191707 140 103 2.0 3.0 0.00 0.00 0.00 1014.1
20260831191203 140 99 3.0 6.0 0.00 0.00 0.00 1014.2
20260831190657 140 179 10.0 14.0 0.00 0.00 0.00 1014.2
20260831190157 140 188 0.0 0.0 0.00 0.00 0.00 1014.4
20260831185652 140 109 5.0 6.0 0.00 0.00 0.00 1014.1
20260831185148 140 94 3.0 6.0 0.00 0.00 0.00 1014.6
20260831184647 140 112 4.0 7.0 0.00 0.00 0.00 1014.4
20260831184143 140 148 4.0 6.0 0.00 0.00 0.00 1014.5
20260831183643 140 125 8.0 11.0 0.00 0.00 0.00 1014.6
20260831183142 140 134 0.0 0.0 0.00 0.00 0.00 1014.9
20260831182641 140 180 7.0 11.0 0.00 0.00 0.00 1014.9
20260831182137 140 204 2.0 3.0 0.00 0.00 0.00 1014.8
20260831181632 140 229 0.0 0.0 0.00 0.00 0.00 1015.1
20260831181131 140 151 1.0 3.0 0.00 0.00 0.00 1015.0
20260831180627 140 145 1.0 2.0 0.00 0.00 0.00 1015.2
20260831180121 140 205 0.0 0.0 0.00 0.00 0.00 1015.5
20260831175616 140 190 3.0 9.0 0.00 0.00 0.00 1015.3
20260831175114 140 197 0.0 2.0 0.00 0.00 0.00 1015.4
20260831174613 140 178 1.0 7.0 0.00 0.00 0.00 1015.4
20260831174108 140 103 0.0 1.0 0.00 0.00 0.00 1015.5
20260831173606 140 148 3.0 6.0 0.00 0.00 0.00 1015.8
20260831173103 140 215 0.0 2.0 0.00 0.00 0.00 1016.0
20260831172603 140 203 0.0 1.0 0.00 0.00 0.00 1016.0
20260831172058 140 186 3.0 5.0 0.00 0.00 0.00 1015.6
20260831171553 140 202 9.0 13.0 0.00 0.00 0.00 1016.0
20260831171050 140 190 3.0 6.0 0.00 0.00 0.00 1015.9
20260831170545 140 221 1.0 2.0 0.00 0.00 0.00 1015.9
20260831170044 140 182 0.0 0.0 0.00 0.00 0.00 1016.1
20260831165543 140 165 0.0 0.0 0.00 0.00 0.00 1016.2
20260831165040 140 153 0.0 0.0 0.00 0.00 0.00 1016.1
20260831164536 140 185 8.0 11.0 0.00 0.00 0.00 1016.0
20260831164031 140 190 1.0 5.0 0.00 0.00 0.00 1016.3
20260831163526 140 165 5.0 7.0 0.00 0.00 0.00 1016.2
20260831163022 140 220 0.0 0.0 0.00 0.00 0.00 1016.1
20260831162520 140 152 5.0 8.0 0.00 0.00 0.00 1016.3
20260831162019 140 138 0.0 0.0 0.00 0.00 0.00 1016.1
20260831161515 140 195 5.0 9.0 0.00 0.00 0.00 1016.4
20260831161011 140 191 0.0 0.0 0.00 0.00 0.00 1016.3
20260831160510 140 133 0.0 0.0 0.00 0.00 0.00 1016.4
20260831160006 140 167 0.0 0.0 0.00 0.00 0.00 1016.6
20260831155500 140 143 3.0 7.0 0.00 0.00 0.00 1016.4
20260831154955 140 173 1.0 2.0 0.00 0.00 0.00 1016.4
20260831154452 140 181 0.0 0.0 0.00 0.00 0.00 1016.6
20260831153950 140 203 0.0 0.0 0.00 0.00 0.00 1016.2
20260831153446 140 229 0.0 0.0 0.00 0.00 0.00 1016.4
20260831152943 140 149 0.0 1.0 0.00 0.00 0.00 1016.2
20260831152438 140 141 5.0 8.0 0.00 0.00 0.00 1016.2
20260831151933 140 192 3.0 6.0 0.00 0.00 0.00 1016.2
20260831151431 140 185 6.0 7.0 0.00 0.00 0.00 1016.4
20260831150927 140 190 8.0 9.0 0.00 0.00 0.00 1016.3
20260831150422 140 172 0.0 0.0 0.00 0.00 0.00 1016.4
20260831145921 140 196 7.0 10.0 0.00 0.00 0.00 1016.4
20260831145412 140 184 0.0 0.0 0.00 0.00 0.00 1016.6
20260831144907 140 151 0.0 0.0 0.00 0.00 0.00 1016.4
20260831144404 140 148 0.0 0.0 0.00 0.00 0.00 1016.3
20260831143858 140 175 0.0 0.0 0.00 0.00 0.00 1016.5
20260831143353 140 168 0.0 0.0 0.00 0.00 0.00 1016.5
20260831142849 140 220 0.0 0.0 0.00 0.00 0.00 1016.4
20260831142338 140 179 0.0 0.0 0.00 0.00 0.00 1016.3
20260831141838 140 152 0.0 0.0 0.00 0.00 0.00 1016.2
20260831141333 140 174 5.0 7.0 0.00 0.00 0.00 1016.3
20260831140827 140 170 0.0 0.0 0.00 0.00 0.00 1016.2
20260831140322 140 194 0.0 0.0 0.00 0.00 0.00 1016.2
20260831135820 140 125 0.0 0.0 0.00 0.00 0.00 1016.3
20260831135316 140 164 0.0 0.0 0.00 0.00 0.00 1016.1
20260831134811 140 193 0.0 0.0 0.00 0.00 0.00 1016.0
20260831134307 140 132 0.0 0.0 0.00 0.00 0.00 1015.9
20260831133807 140 147 0.0 0.0 0.00 0.00 0.00 1015.9
20260831133306 140 140 0.0 0.0 0.00 0.00 0.00 1016.0
20260831132756 140 127 0.0 0.0 0.00 0.00 0.00 1016.1
20260831132251 140 144 0.0 0.0 0.00 0.00 0.00 1016.2
20260831131750 140 157 0.0 0.0 0.00 0.00 0.00 1016.1
20260831131248 140 165 0.0 0.0 0.00 0.00 0.00 1016.0
20260831130748 140 114 0.0 0.0 0.00 0.00 0.00 1016.0
20260831130243 140 138 0.0 0.0 0.00 0.00 0.00 1015.6
20260831125742 140 159 0.0 0.0 0.00 0.00 0.00 1015.6
20260831125239 140 118 0.0 0.0 0.00 0.00 0.00 1015.5
20260831124738 140 144 0.0 0.0 0.00 0.00 0.00 1015.6
20260831124235 140 150 0.0 0.0 0.00 0.00 0.00 1015.5
20260831123734 140 148 0.0 0.0 0.00 0.00 0.00 1015.3
20260831123228 140 143 0.0 0.0 0.00 0.00 0.00 1015.2
20260831122727 140 118 0.0 0.0 0.00 0.00 0.00 1015.2
20260831122224 140 176 0.0 0.0 0.00 0.00 0.00 1015.0
20260831121722 140 142 0.0 0.0 0.00 0.00 0.00 1015.1
20260831121220 140 118 0.0 0.0 0.00 0.00 0.00 1014.8
20260831120714 140 131 0.0 0.0 0.00 0.00 0.00 1014.6
20260831120209 140 115 0.0 0.0 0.00 0.00 0.00 1015.1
20260831115705 140 115 0.0 0.0 0.00 0.00 0.00 1014.7
20260831115201 140 135 0.0 0.0 0.00 0.00 0.00 1014.9
20260831114700 140 127 0.0 0.0 0.00 0.00 0.00 1014.7
20260831114159 140 113 0.0 0.0 0.00 0.00 0.00 1014.8
20260831113654 140 153 0.0 0.0 0.00 0.00 0.00 1014.8
20260831113149 140 119 0.0 0.0 0.00 0.00 0.00 1014.6
20260831112648 140 119 0.0 0.0 0.00 0.00 0.00 1014.5
20260831112144 140 135 0.0 0.0 0.00 0.00 0.00 1014.7
20260831111639 140 122 0.0 0.0 0.00 0.00 0.00 1014.6
20260831111135 140 124 0.0 0.0 0.00 0.00 0.00 1014.7
20260831110630 140 110 0.0 0.0 0.00 0.00 0.00 1014.4
20260831110120 140 102 0.0 0.0 0.00 0.00 0.00 1014.7
20260831105619 140 116 0.0 0.0 0.00 0.00 0.00 1014.4
20260831105114 140 163 0.0 0.0 0.00 0.00 0.00 1014.5
20260831104610 140 163 0.0 0.0 0.00 0.00 0.00 1014.5
20260831104106 140 117 0.0 0.0 0.00 0.00 0.00 1014.1
20260831103601 140 157 0.0 0.0 0.00 0.00 0.00 1014.4
20260831103057 140 149 0.0 0.0 0.00 0.00 0.00 1014.1
20260831102556 140 237 0.0 0.0 0.00 0.00 0.00 1014.0
20260831102051 140 255 0.0 0.0 0.00 0.00 0.00 1014.0
20260831101546 140 148 0.0 0.0 0.00 0.00 0.00 1014.2
20260831101043 140 148 0.0 0.0 0.00 0.00 0.00 1014.4
20260831100538 140 149 0.0 0.0 0.00 0.00 0.00 1014.2
20260831100034 140 148 0.0 0.0 0.00 0.00 0.00 1014.2
20260831095532 140 149 0.0 0.0 0.00 0.00 0.00 1014.0
20260831095032 140 149 0.0 0.0 0.00 0.00 0.00 1014.5
20260831094529 140 149 0.0 0.0 0.00 0.00 0.00 1014.1
20260831094024 140 149 0.0 0.0 0.00 0.00 0.00 1014.1
20260831093519 140 149 0.0 0.0 0.00 0.00 0.00 1014.1
20260831093016 140 147 0.0 0.0 0.00 0.00 0.00 1014.0
20260831092511 140 159 0.0 0.0 0.00 0.00 0.00 1014.2
20260831092007 140 161 0.0 0.0 0.00 0.00 0.00 1014.1
20260831091502 140 161 0.0 0.0 0.00 0.00 0.00 1014.2
20260831090956 140 160 0.0 0.0 0.00 0.00 0.00 1014.1
20260831090452 140 173 0.0 0.0 0.00 0.00 0.00 1014.2
20260831085942 140 162 0.0 0.0 0.00 0.00 0.00 1014.0
20260831085438 140 167 0.0 0.0 0.00 0.00 0.00 1014.0
20260831084937 140 139 0.0 0.0 0.00 0.00 0.00 1014.2
20260831084433 140 154 0.0 0.0 0.00 0.00 0.00 1014.1
20260831083930 140 127 0.0 0.0 0.00 0.00 0.00 1014.2
20260831083425 140 95 0.0 0.0 0.00 0.00 0.00 1014.1
20260831082923 140 145 0.0 0.0 0.00 0.00 0.00 1013.9
20260831082418 140 151 0.0 0.0 0.00 0.00 0.00 1013.9
20260831081913 140 145 0.0 0.0 0.00 0.00 0.00 1014.1
20260831081409 140 146 0.0 0.0 0.00 0.00 0.00 1014.1
20260831080905 140 140 0.0 0.0 0.00 0.00 0.00 1014.0
20260831080400 140 144 0.0 0.0 0.00 0.00 0.00 1014.0
20260831075855 140 135 0.0 0.0 0.00 0.00 0.00 1014.5
20260831075350 140 138 0.0 0.0 0.00 0.00 0.00 1014.2
20260831074845 140 115 0.0 0.0 0.00 0.00 0.00 1014.1
20260831074344 140 140 0.0 0.0 0.00 0.00 0.00 1014.0
20260831073840 140 137 0.0 0.0 0.00 0.00 0.00 1014.2
20260831073338 140 136 0.0 0.0 0.00 0.00 0.00 1014.2
20260831072834 140 136 0.0 0.0 0.00 0.00 0.00 1013.7
20260831072329 140 135 0.0 0.0 0.00 0.00 0.00 1013.9
20260831071826 140 149 0.0 0.0 0.00 0.00 0.00 1013.9
20260831071324 140 135 0.0 0.0 0.00 0.00 0.00 1013.8
20260831070820 140 126 0.0 0.0 0.00 0.00 0.00 1013.8
20260831070318 140 177 0.0 0.0 0.00 0.00 0.00 1013.9
20260831065818 140 143 0.0 0.0 0.00 0.00 0.00 1013.9
20260831065316 140 180 2.0 7.0 0.00 0.00 0.00 1013.6
20260831064812 140 135 0.0 0.0 0.00 0.00 0.00 1013.9
20260831064307 140 149 0.0 0.0 0.00 0.00 0.00 1013.6
20260831063803 140 129 0.0 0.0 0.00 0.00 0.00 1014.1
20260831063257 140 146 0.0 0.0 0.00 0.00 0.00 1013.7
20260831062752 140 166 0.0 0.0 0.00 0.00 0.00 1013.8
20260831062247 140 171 2.0 5.0 0.00 0.00 0.00 1013.7
20260831061745 140 154 0.0 0.0 0.00 0.00 0.00 1013.9
20260831061240 140 154 0.0 0.0 0.00 0.00 0.00 1013.8
20260831060736 140 156 0.0 0.0 0.00 0.00 0.00 1013.7
20260831060236 140 170 0.0 0.0 0.00 0.00 0.00 1013.8
20260831055736 140 164 0.0 0.0 0.00 0.00 0.00 1013.5
20260831055236 140 187 0.0 0.0 0.00 0.00 0.00 1013.8
20260831054731 140 160 0.0 0.0 0.00 0.00 0.00 1013.6
20260831054220 140 160 0.0 0.0 0.00 0.00 0.00 1013.7
20260831053714 140 166 0.0 0.0 0.00 0.00 0.00 1013.6
20260831053212 140 156 0.0 0.0 0.00 0.00 0.00 1013.8
20260831052706 140 172 0.0 0.0 0.00 0.00 0.00 1013.8
20260831052205 140 184 0.0 0.0 0.00 0.00 0.00 1013.8
20260831051703 140 165 0.0 0.0 0.00 0.00 0.00 1013.6
20260831051202 140 136 0.0 0.0 0.00 0.00 0.00 1013.3
20260831050657 140 140 0.0 0.0 0.00 0.00 0.00 1013.4
20260831050156 140 144 0.0 0.0 0.00 0.00 0.00 1013.8
20260831045651 140 130 0.0 0.0 0.00 0.00 0.00 1013.6
20260831045145 140 148 0.0 0.0 0.00 0.00 0.00 1013.5
20260831044641 140 139 0.0 0.0 0.00 0.00 0.00 1013.6
20260831044136 140 166 0.0 0.0 0.00 0.00 0.00 1013.7
20260831043631 140 158 0.0 0.0 0.00 0.00 0.00 1013.4
20260831043126 140 139 0.0 0.0 0.00 0.00 0.00 1013.3
20260831042626 140 148 0.0 0.0 0.00 0.00 0.00 1013.6
20260831042120 140 132 0.0 0.0 0.00 0.00 0.00 1013.4
20260831041615 140 134 0.0 0.0 0.00 0.00 0.00 1013.3
20260831041109 140 134 0.0 0.0 0.00 0.00 0.00 1013.5
20260831040604 140 134 0.0 0.0 0.00 0.00 0.00 1013.1
20260831040103 140 149 0.0 0.0 0.00 0.00 0.00 1013.1
20260831035555 140 147 0.0 0.0 0.00 0.00 0.00 1013.4
20260831035051 140 163 0.0 0.0 0.00 0.00 0.00 1013.1
20260831034550 140 136 0.0 0.0 0.00 0.00 0.00 1013.1
20260831034046 140 142 0.0 0.0 0.00 0.00 0.00 1013.1
20260831033541 140 153 0.0 0.0 0.00 0.00 0.00 1013.4
20260831033036 140 164 0.0 0.0 0.00 0.00 0.00 1013.2
20260831032536 140 120 0.0 0.0 0.00 0.00 0.00 1013.0
20260831032032 140 131 0.0 0.0 0.00 0.00 0.00 1013.1
20260831031531 140 136 0.0 0.0 0.00 0.00 0.00 1012.8
20260831031030 140 128 0.0 0.0 0.00 0.00 0.00 1012.9
20260831030530 140 125 0.0 0.0 0.00 0.00 0.00 1012.7
20260831030029 140 132 0.0 0.0 0.00 0.00 0.00 1012.9
20260831025527 140 127 0.0 0.0 0.00 0.00 0.00 1012.9
20260831025023 140 120 3.0 5.0 0.00 0.00 0.00 1012.8
20260831024519 140 133 0.0 0.0 0.00 0.00 0.00 1012.5
20260831024018 140 117 1.0 2.0 0.00 0.00 0.00 1012.6
20260831023516 140 129 0.0 0.0 0.00 0.00 0.00 1012.4
20260831023011 140 92 0.0 0.0 0.00 0.00 0.00 1012.4
20260831022510 140 108 0.0 0.0 0.00 0.00 0.00 1012.2
20260831022006 140 103 0.0 0.0 0.00 0.00 0.00 1012.1
20260831021504 140 94 0.0 0.0 0.00 0.00 0.00 1012.1
20260831021001 140 103 0.0 0.0 0.00 0.00 0.00 1012.0
20260831020500 140 103 0.0 0.0 0.00 0.00 0.00 1011.9
20260831015954 140 142 0.0 0.0 0.00 0.00 0.00 1011.7
20260831015451 140 104 0.0 0.0 0.00 0.00 0.00 1011.8
20260831014946 140 111 0.0 0.0 0.00 0.00 0.00 1011.6
20260831014441 140 98 0.0 0.0 0.00 0.00 0.00 1011.7
20260831013936 140 112 0.0 0.0 0.00 0.00 0.00 1011.6
20260831013432 140 91 0.0 0.0 0.00 0.00 0.00 1011.5
20260831012932 140 135 0.0 0.0 0.00 0.00 0.00 1011.7
20260831012427 140 107 0.0 0.0 0.00 0.00 0.00 1011.4
20260831011926 140 122 0.0 0.0 0.00 0.00 0.00 1011.4
20260831011421 140 104 0.0 0.0 0.00 0.00 0.00 1011.2
20260831010917 140 113 0.0 0.0 0.00 0.00 0.00 1011.2
20260831010412 140 127 5.0 6.0 0.00 0.00 0.00 1011.2
20260831005907 140 109 0.0 0.0 0.00 0.00 0.00 1010.8
20260831005403 140 141 0.0 1.0 0.00 0.00 0.00 1011.1
20260831004857 140 114 1.0 5.0 0.00 0.00 0.00 1011.2
20260831004354 140 101 0.0 0.0 0.00 0.00 0.00 1011.1
20260831003849 140 116 0.0 0.0 0.00 0.00 0.00 1011.1
20260831003346 140 144 2.0 7.0 0.00 0.00 0.00 1011.1
20260831002845 140 141 0.0 0.0 0.00 0.00 0.00 1011.2
20260831002344 140 137 0.0 0.0 0.00 0.00 0.00 1011.0
20260831001840 140 101 7.0 8.0 0.00 0.00 0.00 1011.1
20260831001340 140 131 8.0 10.0 0.00 0.00 0.00 1011.2
20260831000837 140 121 0.0 0.0 0.00 0.00 0.00 1011.0
20260831000333 140 83 0.0 1.0 0.00 0.00 0.00 1011.3
20260830235830 140 124 0.0 0.0 0.00 0.00 0.00 1011.1
20260830235325 140 127 6.0 11.0 0.00 0.00 0.00 1011.1
20260830234821 140 131 0.0 0.0 0.00 0.00 0.00 1011.0
20260830234317 140 145 9.0 11.0 0.00 0.00 0.00 1011.2
20260830233812 140 121 2.0 5.0 0.00 0.00 0.00 1011.1
20260830233307 140 122 7.0 9.0 0.00 0.00 0.00 1011.1
20260830232803 140 132 5.0 10.0 0.00 0.00 0.00 1011.0
20260830232259 140 146 14.0 15.0 0.00 0.00 0.00 1011.0
20260830231755 140 133 6.0 8.0 0.00 0.00 0.00 1011.2
20260830231254 140 107 0.0 0.0 0.00 0.00 0.00 1011.0
20260830230749 140 100 3.0 6.0 0.00 0.00 0.00 1011.1
20260830230245 140 96 10.0 13.0 0.00 0.00 0.00 1011.5
20260830225744 140 75 2.0 9.0 0.00 0.00 0.00 1011.3
20260830225239 140 129 0.0 0.0 0.00 0.00 0.00 1011.4
20260830224738 140 106 0.0 0.0 0.00 0.00 0.00 1011.2
20260830224234 140 117 1.0 6.0 0.00 0.00 0.00 1011.3
20260830223730 140 143 9.0 10.0 0.00 0.00 0.00 1011.4
20260830223226 140 127 0.0 0.0 0.00 0.00 0.00 1011.4
20260830222720 140 102 5.0 8.0 0.00 0.00 0.00 1011.1
20260830222216 140 153 10.0 11.0 0.00 0.00 0.00 1011.2
20260830221711 140 130 3.0 6.0 0.00 0.00 0.00 1011.3
20260830221208 140 204 0.0 0.0 0.00 0.00 0.00 1011.3
20260830220703 140 173 7.0 9.0 0.00 0.00 0.00 1011.3
20260830220201 140 227 0.0 0.0 0.00 0.00 0.00 1011.3
20260830215701 140 128 0.0 0.0 0.00 0.00 0.00 1011.4
20260830215155 140 119 10.0 11.0 0.00 0.00 0.00 1011.4
20260830214651 140 125 7.0 9.0 0.00 0.00 0.00 1011.4
20260830214151 140 149 0.0 0.0 0.00 0.00 0.00 1011.6
20260830213650 140 97 3.0 6.0 0.00 0.00 0.00 1011.6
20260830213146 140 96 9.0 11.0 0.00 0.00 0.00 1011.4
20260830212642 140 123 9.0 10.0 0.00 0.00 0.00 1011.4
20260830212136 140 108 7.0 11.0 0.00 0.00 0.00 1011.6
20260830211632 140 215 0.0 0.0 0.00 0.00 0.00 1011.6
20260830211131 140 130 2.0 5.0 0.00 0.00 0.00 1011.6
20260830210626 140 60 0.0 0.0 0.00 0.00 0.00 1011.8
20260830210126 140 76 0.0 1.0 0.00 0.00 0.00 1011.8
20260830205622 140 136 0.0 1.0 0.00 0.00 0.00 1012.0
20260830205119 140 212 8.0 11.0 0.00 0.00 0.00 1011.9
20260830204618 140 188 7.0 8.0 0.00 0.00 0.00 1012.0
20260830204117 140 126 4.0 8.0 0.00 0.00 0.00 1011.9
20260830203614 140 110 6.0 9.0 0.00 0.00 0.00 1012.2
20260830203114 140 148 0.0 0.0 0.00 0.00 0.00 1012.4
20260830202613 140 167 5.0 9.0 0.00 0.00 0.00 1012.4
20260830202109 140 137 9.0 11.0 0.00 0.00 0.00 1012.3
20260830201608 140 105 0.0 0.0 0.00 0.00 0.00 1012.5
20260830201103 140 105 4.0 7.0 0.00 0.00 0.00 1012.5
20260830200559 140 139 11.0 15.0 0.00 0.00 0.00 1012.6
20260830200057 140 182 0.0 0.0 0.00 0.00 0.00 1012.6
20260830195553 140 140 10.0 13.0 0.00 0.00 0.00 1012.6
20260830195051 140 45 8.0 9.0 0.00 0.00 0.00 1012.7
20260830194550 140 96 3.0 6.0 0.00 0.00 0.00 1013.0
20260830194045 140 149 5.0 7.0 0.00 0.00 0.00 1012.9
20260830193544 140 179 8.0 10.0 0.00 0.00 0.00 1012.7
20260830193040 140 98 6.0 9.0 0.00 0.00 0.00 1012.9
20260830192536 140 146 0.0 0.0 0.00 0.00 0.00 1012.9
20260830192035 140 143 5.0 9.0 0.00 0.00 0.00 1013.2